TimeEDT,TemperatureF,Dew PointF,Humidity,Sea Level PressureIn,VisibilityMPH,Wind Direction,Wind SpeedMPH,Gust SpeedMPH,PrecipitationIn,Events,Conditions,WindDirDegrees,DateUTC
12:54 AM,30.9,26.1,82,29.87,4.0,ENE,19.6,29.9,0.06,Rain,Light Freezing Rain,70,2013-04-12 04:54:00
1:54 AM,30.9,25.0,79,29.86,6.0,ENE,19.6,31.1,0.06,Rain,Light Freezing Rain,70,2013-04-12 05:54:00
2:13 AM,30.2,26.6,86,29.83,5.0,ENE,15.0,26.5,0.03,Rain,Light Freezing Rain,70,2013-04-12 06:13:00
2:39 AM,30.2,26.6,86,29.79,4.0,ENE,17.3,27.6,0.05,,Overcast,70,2013-04-12 06:39:00
2:54 AM,30.0,25.0,82,29.79,4.0,ENE,21.9,32.2,0.06,,Overcast,70,2013-04-12 06:54:00
3:42 AM,28.4,26.6,93,29.75,2.5,ENE,18.4,29.9,0.05,,Overcast,70,2013-04-12 07:42:00
3:54 AM,28.9,26.1,89,29.78,2.0,East,16.1,28.8,0.09,,Overcast,80,2013-04-12 07:54:00
4:06 AM,28.4,26.6,93,29.76,1.5,ENE,15.0,28.8,0.02,Snow,Light Snow,70,2013-04-12 08:06:00
4:14 AM,28.4,26.6,93,29.77,1.2,East,11.5,23.0,0.04,Snow,Light Snow,80,2013-04-12 08:14:00
4:29 AM,28.4,26.6,93,29.76,0.8,ENE,13.8,23.0,0.07,Snow,Light Snow,70,2013-04-12 08:29:00
4:54 AM,28.9,27.0,92,29.78,0.5,ENE,15.0,29.9,0.11,Fog-Snow,Light Snow,70,2013-04-12 08:54:00
5:41 AM,30.2,26.6,86,29.70,1.0,ENE,19.6,29.9,0.08,Snow,Light Snow,70,2013-04-12 09:41:00
5:54 AM,30.0,27.0,88,29.72,1.0,East,12.7,29.9,0.09,Snow,Light Snow,80,2013-04-12 09:54:00
6:54 AM,30.0,28.0,92,29.69,1.8,East,17.3,27.6,0.06,Snow,Light Snow,80,2013-04-12 10:54:00
7:54 AM,30.0,28.0,92,29.66,1.0,East,19.6,26.5,0.01,Snow,Light Snow,80,2013-04-12 11:54:00
8:54 AM,30.9,28.0,89,29.66,1.0,East,11.5,25.3,0.00,Snow,Light Snow,80,2013-04-12 12:54:00
9:54 AM,30.9,30.0,96,29.64,1.0,ENE,13.8,20.7,0.00,Snow,Light Snow,70,2013-04-12 13:54:00
10:54 AM,32.0,30.0,92,29.63,1.0,East,12.7,19.6,0.01,Snow,Light Snow,90,2013-04-12 14:54:00
11:33 AM,32.0,30.2,93,29.61,0.8,East,8.1,-,0.01,Snow,Light Snow,80,2013-04-12 15:33:00
11:54 AM,32.0,30.0,92,29.65,0.5,East,6.9,-,0.02,Fog-Snow,Light Snow,80,2013-04-12 15:54:00
12:54 PM,33.1,30.9,92,29.64,1.0,East,8.1,-,0.05,Snow,Light Snow,80,2013-04-12 16:54:00
1:04 PM,33.8,30.2,87,29.61,1.0,East,10.4,-,0.00,,Overcast,80,2013-04-12 17:04:00
1:52 PM,32.0,30.2,93,29.61,0.8,East,11.5,-,0.02,Snow,Light Snow,80,2013-04-12 17:52:00
1:54 PM,32.0,30.0,92,29.64,0.5,East,10.4,-,0.02,Fog-Snow,Snow,80,2013-04-12 17:54:00
2:28 PM,33.8,30.2,87,29.61,1.0,ENE,10.4,-,0.01,Snow,Light Snow,70,2013-04-12 18:28:00
2:54 PM,33.1,30.0,89,29.65,1.0,ENE,9.2,-,0.02,Snow,Light Snow,70,2013-04-12 18:54:00
3:54 PM,33.1,30.9,92,29.65,1.0,ENE,6.9,-,0.01,Snow,Light Snow,70,2013-04-12 19:54:00
4:54 PM,33.1,30.0,89,29.65,1.5,ENE,5.8,-,0.01,Snow,Light Snow,70,2013-04-12 20:54:00
5:13 PM,33.8,30.2,87,29.63,2.0,ENE,6.9,-,0.01,,Overcast,70,2013-04-12 21:13:00
5:20 PM,33.8,30.2,87,29.63,1.8,ENE,6.9,-,0.01,,Overcast,70,2013-04-12 21:20:00
5:29 PM,33.8,30.2,87,29.63,2.0,ENE,8.1,-,0.01,,Overcast,70,2013-04-12 21:29:00
5:51 PM,32.0,30.2,93,29.64,1.5,ENE,8.1,-,0.01,Snow,Light Snow,70,2013-04-12 21:51:00
5:54 PM,32.0,30.0,92,29.67,1.5,ENE,5.8,-,0.01,Snow,Light Snow,70,2013-04-12 21:54:00
6:54 PM,32.0,30.0,92,29.69,1.8,East,4.6,-,0.01,,Overcast,90,2013-04-12 22:54:00
7:54 PM,32.0,30.0,92,29.68,2.5,NE,3.5,-,N/A,,Overcast,50,2013-04-12 23:54:00
8:03 PM,32.0,30.2,93,29.66,4.0,ENE,4.6,-,N/A,,Overcast,60,2013-04-13 00:03:00
8:54 PM,32.0,30.0,92,29.69,5.0,ENE,4.6,-,N/A,,Overcast,60,2013-04-13 00:54:00
9:54 PM,32.0,30.0,92,29.70,5.0,ENE,4.6,-,0.00,,Overcast,70,2013-04-13 01:54:00
10:54 PM,32.0,30.9,96,29.70,5.0,NE,4.6,-,0.00,,Overcast,50,2013-04-13 02:54:00
11:54 PM,32.0,30.9,96,29.69,6.0,Calm,Calm,-,0.00,,Overcast,0,2013-04-13 03:54:00